STARLINK-11466 [DTC] (62220 NORAD) Tracking and Keplerian Element Data

This shows tracking and keplerian element data for the satellite.

Feedback or suggestion? Click here.




ElementValue
Catalog62220
NameSTARLINK-11466 [DTC]
Epoch Orbit1074
Epoch Day35.0216809
Epoch Year2025
RAAN266.7463
Inclination53.157
Eccentricity0.0001394
Argument of Perigee76.6856
Mean Anonmoly283.4317
Mean Motion15.6970658
Decay Rate1.159E-05
L11 62220U 24231C 25035.02168090 .00001159 00000+0 14429-4 0 9994
L22 62220 53.1570 266.7463 0001394 76.6856 283.4317 15.69706580 10741



Live tracking and technical data element details for STARLINK-11466 [DTC] (NORAD 62220). STARLINK-11466 [DTC] can be tracked NOW for your location showing map with azimuth and elevation plus other details from your city location.







IsCatalogInMostPopularTable: catalog: 62220, numindb: 13
Update: records affected: 1



GetName: 62220 STARLINK-11466 [DTC]

Hit Count: updated at: Sat, 24 May 2025 17:01:14 GMT